Index of /20260506/WXO-DD/model_rdps/10km/00/083
Name Last modified Size Description
Parent Directory -
20260506T00Z_MSC_RDPS_AbsoluteVorticity_IsbL-0250_RLatLon0.09_PT083H.grib2 2026-05-06 03:04 594K
20260506T00Z_MSC_RDPS_AbsoluteVorticity_IsbL-0500_RLatLon0.09_PT083H.grib2 2026-05-06 03:04 557K
20260506T00Z_MSC_RDPS_AbsoluteVorticity_IsbL-0700_RLatLon0.09_PT083H.grib2 2026-05-06 03:04 615K
20260506T00Z_MSC_RDPS_AbsoluteVorticity_IsbL-0850_RLatLon0.09_PT083H.grib2 2026-05-06 03:04 796K
20260506T00Z_MSC_RDPS_AirTemp_AGL-120m_RLatLon0.09_PT083H.grib2 2026-05-06 03:04 378K
20260506T00Z_MSC_RDPS_AirTemp_AGL-2m_RLatLon0.09_PT083H.grib2 2026-05-06 03:04 625K
20260506T00Z_MSC_RDPS_AirTemp_AGL-40m_RLatLon0.09_PT083H.grib2 2026-05-06 03:04 393K
20260506T00Z_MSC_RDPS_AirTemp_AGL-80m_RLatLon0.09_PT083H.grib2 2026-05-06 03:04 384K
20260506T00Z_MSC_RDPS_AirTemp_IsbL-0001_RLatLon0.09_PT083H.grib2 2026-05-06 03:04 234K
20260506T00Z_MSC_RDPS_AirTemp_IsbL-0005_RLatLon0.09_PT083H.grib2 2026-05-06 03:04 376K
20260506T00Z_MSC_RDPS_AirTemp_IsbL-0010_RLatLon0.09_PT083H.grib2 2026-05-06 03:04 388K
20260506T00Z_MSC_RDPS_AirTemp_IsbL-0020_RLatLon0.09_PT083H.grib2 2026-05-06 03:04 409K
20260506T00Z_MSC_RDPS_AirTemp_IsbL-0030_RLatLon0.09_PT083H.grib2 2026-05-06 03:04 337K
20260506T00Z_MSC_RDPS_AirTemp_IsbL-0050_RLatLon0.09_PT083H.grib2 2026-05-06 03:04 311K
20260506T00Z_MSC_RDPS_AirTemp_IsbL-0100_RLatLon0.09_PT083H.grib2 2026-05-06 03:04 424K
20260506T00Z_MSC_RDPS_AirTemp_IsbL-0150_RLatLon0.09_PT083H.grib2 2026-05-06 03:04 411K
20260506T00Z_MSC_RDPS_AirTemp_IsbL-0175_RLatLon0.09_PT083H.grib2 2026-05-06 03:04 404K
20260506T00Z_MSC_RDPS_AirTemp_IsbL-0200_RLatLon0.09_PT083H.grib2 2026-05-06 03:04 409K
20260506T00Z_MSC_RDPS_AirTemp_IsbL-0225_RLatLon0.09_PT083H.grib2 2026-05-06 03:04 411K
20260506T00Z_MSC_RDPS_AirTemp_IsbL-0250_RLatLon0.09_PT083H.grib2 2026-05-06 03:04 419K
20260506T00Z_MSC_RDPS_AirTemp_IsbL-0275_RLatLon0.09_PT083H.grib2 2026-05-06 03:04 399K
20260506T00Z_MSC_RDPS_AirTemp_IsbL-0300_RLatLon0.09_PT083H.grib2 2026-05-06 03:04 406K
20260506T00Z_MSC_RDPS_AirTemp_IsbL-0350_RLatLon0.09_PT083H.grib2 2026-05-06 03:04 418K
20260506T00Z_MSC_RDPS_AirTemp_IsbL-0400_RLatLon0.09_PT083H.grib2 2026-05-06 03:04 419K
20260506T00Z_MSC_RDPS_AirTemp_IsbL-0450_RLatLon0.09_PT083H.grib2 2026-05-06 03:04 427K
20260506T00Z_MSC_RDPS_AirTemp_IsbL-0500_RLatLon0.09_PT083H.grib2 2026-05-06 03:04 438K
20260506T00Z_MSC_RDPS_AirTemp_IsbL-0550_RLatLon0.09_PT083H.grib2 2026-05-06 03:04 456K
20260506T00Z_MSC_RDPS_AirTemp_IsbL-0600_RLatLon0.09_PT083H.grib2 2026-05-06 03:04 475K
20260506T00Z_MSC_RDPS_AirTemp_IsbL-0650_RLatLon0.09_PT083H.grib2 2026-05-06 03:04 490K
20260506T00Z_MSC_RDPS_AirTemp_IsbL-0700_RLatLon0.09_PT083H.grib2 2026-05-06 03:04 518K
20260506T00Z_MSC_RDPS_AirTemp_IsbL-0750_RLatLon0.09_PT083H.grib2 2026-05-06 03:04 521K
20260506T00Z_MSC_RDPS_AirTemp_IsbL-0800_RLatLon0.09_PT083H.grib2 2026-05-06 03:04 582K
20260506T00Z_MSC_RDPS_AirTemp_IsbL-0850_RLatLon0.09_PT083H.grib2 2026-05-06 03:04 641K
20260506T00Z_MSC_RDPS_AirTemp_IsbL-0875_RLatLon0.09_PT083H.grib2 2026-05-06 03:04 659K
20260506T00Z_MSC_RDPS_AirTemp_IsbL-0900_RLatLon0.09_PT083H.grib2 2026-05-06 03:04 662K
20260506T00Z_MSC_RDPS_AirTemp_IsbL-0925_RLatLon0.09_PT083H.grib2 2026-05-06 03:04 662K
20260506T00Z_MSC_RDPS_AirTemp_IsbL-0950_RLatLon0.09_PT083H.grib2 2026-05-06 03:04 529K
20260506T00Z_MSC_RDPS_AirTemp_IsbL-0970_RLatLon0.09_PT083H.grib2 2026-05-06 03:04 520K
20260506T00Z_MSC_RDPS_AirTemp_IsbL-0985_RLatLon0.09_PT083H.grib2 2026-05-06 03:04 504K
20260506T00Z_MSC_RDPS_AirTemp_IsbL-1000_RLatLon0.09_PT083H.grib2 2026-05-06 03:04 492K
20260506T00Z_MSC_RDPS_AirTemp_IsbL-1015_RLatLon0.09_PT083H.grib2 2026-05-06 03:04 494K
20260506T00Z_MSC_RDPS_Albedo_Sfc_RLatLon0.09_PT083H.grib2 2026-05-06 03:04 152K
20260506T00Z_MSC_RDPS_CAPE_Sfc_RLatLon0.09_PT083H.grib2 2026-05-06 03:04 1.6M
20260506T00Z_MSC_RDPS_CIN_Sfc_RLatLon0.09_PT083H.grib2 2026-05-06 03:04 1.1M
20260506T00Z_MSC_RDPS_CloudWater_EAtm_RLatLon0.09_PT083H.grib2 2026-05-06 03:04 227K
20260506T00Z_MSC_RDPS_ConvectivePrecip-Accum_Sfc_RLatLon0.09_PT083H.grib2 2026-05-06 03:04 1.3M
20260506T00Z_MSC_RDPS_DewPointDepression_AGL-2m_RLatLon0.09_PT083H.grib2 2026-05-06 03:04 396K
20260506T00Z_MSC_RDPS_DewPointDepression_IsbL-0001_RLatLon0.09_PT083H.grib2 2026-05-06 03:04 193
20260506T00Z_MSC_RDPS_DewPointDepression_IsbL-0005_RLatLon0.09_PT083H.grib2 2026-05-06 03:04 193
20260506T00Z_MSC_RDPS_DewPointDepression_IsbL-0010_RLatLon0.09_PT083H.grib2 2026-05-06 03:04 193
20260506T00Z_MSC_RDPS_DewPointDepression_IsbL-0020_RLatLon0.09_PT083H.grib2 2026-05-06 03:04 193
20260506T00Z_MSC_RDPS_DewPointDepression_IsbL-0030_RLatLon0.09_PT083H.grib2 2026-05-06 03:04 193
20260506T00Z_MSC_RDPS_DewPointDepression_IsbL-0050_RLatLon0.09_PT083H.grib2 2026-05-06 03:04 107K
20260506T00Z_MSC_RDPS_DewPointDepression_IsbL-0100_RLatLon0.09_PT083H.grib2 2026-05-06 03:04 110K
20260506T00Z_MSC_RDPS_DewPointDepression_IsbL-0150_RLatLon0.09_PT083H.grib2 2026-05-06 03:04 143K
20260506T00Z_MSC_RDPS_DewPointDepression_IsbL-0175_RLatLon0.09_PT083H.grib2 2026-05-06 03:04 173K
20260506T00Z_MSC_RDPS_DewPointDepression_IsbL-0200_RLatLon0.09_PT083H.grib2 2026-05-06 03:04 218K
20260506T00Z_MSC_RDPS_DewPointDepression_IsbL-0225_RLatLon0.09_PT083H.grib2 2026-05-06 03:04 254K
20260506T00Z_MSC_RDPS_DewPointDepression_IsbL-0250_RLatLon0.09_PT083H.grib2 2026-05-06 03:04 294K
20260506T00Z_MSC_RDPS_DewPointDepression_IsbL-0275_RLatLon0.09_PT083H.grib2 2026-05-06 03:04 304K
20260506T00Z_MSC_RDPS_DewPointDepression_IsbL-0300_RLatLon0.09_PT083H.grib2 2026-05-06 03:04 320K
20260506T00Z_MSC_RDPS_DewPointDepression_IsbL-0350_RLatLon0.09_PT083H.grib2 2026-05-06 03:04 321K
20260506T00Z_MSC_RDPS_DewPointDepression_IsbL-0400_RLatLon0.09_PT083H.grib2 2026-05-06 03:04 328K
20260506T00Z_MSC_RDPS_DewPointDepression_IsbL-0450_RLatLon0.09_PT083H.grib2 2026-05-06 03:04 331K
20260506T00Z_MSC_RDPS_DewPointDepression_IsbL-0500_RLatLon0.09_PT083H.grib2 2026-05-06 03:04 335K
20260506T00Z_MSC_RDPS_DewPointDepression_IsbL-0550_RLatLon0.09_PT083H.grib2 2026-05-06 03:04 346K
20260506T00Z_MSC_RDPS_DewPointDepression_IsbL-0600_RLatLon0.09_PT083H.grib2 2026-05-06 03:04 365K
20260506T00Z_MSC_RDPS_DewPointDepression_IsbL-0650_RLatLon0.09_PT083H.grib2 2026-05-06 03:04 374K
20260506T00Z_MSC_RDPS_DewPointDepression_IsbL-0700_RLatLon0.09_PT083H.grib2 2026-05-06 03:04 386K
20260506T00Z_MSC_RDPS_DewPointDepression_IsbL-0750_RLatLon0.09_PT083H.grib2 2026-05-06 03:04 411K
20260506T00Z_MSC_RDPS_DewPointDepression_IsbL-0800_RLatLon0.09_PT083H.grib2 2026-05-06 03:04 453K
20260506T00Z_MSC_RDPS_DewPointDepression_IsbL-0850_RLatLon0.09_PT083H.grib2 2026-05-06 03:04 487K
20260506T00Z_MSC_RDPS_DewPointDepression_IsbL-0875_RLatLon0.09_PT083H.grib2 2026-05-06 03:04 479K
20260506T00Z_MSC_RDPS_DewPointDepression_IsbL-0900_RLatLon0.09_PT083H.grib2 2026-05-06 03:04 460K
20260506T00Z_MSC_RDPS_DewPointDepression_IsbL-0925_RLatLon0.09_PT083H.grib2 2026-05-06 03:04 446K
20260506T00Z_MSC_RDPS_DewPointDepression_IsbL-0950_RLatLon0.09_PT083H.grib2 2026-05-06 03:04 436K
20260506T00Z_MSC_RDPS_DewPointDepression_IsbL-0970_RLatLon0.09_PT083H.grib2 2026-05-06 03:04 430K
20260506T00Z_MSC_RDPS_DewPointDepression_IsbL-0985_RLatLon0.09_PT083H.grib2 2026-05-06 03:04 424K
20260506T00Z_MSC_RDPS_DewPointDepression_IsbL-1000_RLatLon0.09_PT083H.grib2 2026-05-06 03:04 422K
20260506T00Z_MSC_RDPS_DewPointDepression_IsbL-1015_RLatLon0.09_PT083H.grib2 2026-05-06 03:04 413K
20260506T00Z_MSC_RDPS_DewPoint_AGL-2m_RLatLon0.09_PT083H.grib2 2026-05-06 03:04 393K
20260506T00Z_MSC_RDPS_DownwardLongwaveRadiationFlux-Accum_Sfc_RLatLon0.09_PT083H.grib2 2026-05-06 03:04 444K
20260506T00Z_MSC_RDPS_DownwardShortwaveRadiationFlux-Accum_NTAtm_RLatLon0.09_PT083H.grib2 2026-05-06 03:04 108K
20260506T00Z_MSC_RDPS_DownwardShortwaveRadiationFlux-Accum_Sfc_RLatLon0.09_PT083H.grib2 2026-05-06 03:04 642K
20260506T00Z_MSC_RDPS_FreezingRain-Accum1h_Sfc_RLatLon0.09_PT083H.grib2 2026-05-06 03:04 62K
20260506T00Z_MSC_RDPS_FreezingRain-Accum_Sfc_RLatLon0.09_PT083H.grib2 2026-05-06 03:04 264K
20260506T00Z_MSC_RDPS_GeopotentialHeight_IsbL-0001_RLatLon0.09_PT083H.grib2 2026-05-06 03:04 239K
20260506T00Z_MSC_RDPS_GeopotentialHeight_IsbL-0005_RLatLon0.09_PT083H.grib2 2026-05-06 03:04 337K
20260506T00Z_MSC_RDPS_GeopotentialHeight_IsbL-0010_RLatLon0.09_PT083H.grib2 2026-05-06 03:04 306K
20260506T00Z_MSC_RDPS_GeopotentialHeight_IsbL-0020_RLatLon0.09_PT083H.grib2 2026-05-06 03:04 304K
20260506T00Z_MSC_RDPS_GeopotentialHeight_IsbL-0030_RLatLon0.09_PT083H.grib2 2026-05-06 03:04 306K
20260506T00Z_MSC_RDPS_GeopotentialHeight_IsbL-0050_RLatLon0.09_PT083H.grib2 2026-05-06 03:04 308K
20260506T00Z_MSC_RDPS_GeopotentialHeight_IsbL-0100_RLatLon0.09_PT083H.grib2 2026-05-06 03:04 285K
20260506T00Z_MSC_RDPS_GeopotentialHeight_IsbL-0150_RLatLon0.09_PT083H.grib2 2026-05-06 03:04 227K
20260506T00Z_MSC_RDPS_GeopotentialHeight_IsbL-0175_RLatLon0.09_PT083H.grib2 2026-05-06 03:04 228K
20260506T00Z_MSC_RDPS_GeopotentialHeight_IsbL-0200_RLatLon0.09_PT083H.grib2 2026-05-06 03:04 231K
20260506T00Z_MSC_RDPS_GeopotentialHeight_IsbL-0225_RLatLon0.09_PT083H.grib2 2026-05-06 03:04 234K
20260506T00Z_MSC_RDPS_GeopotentialHeight_IsbL-0250_RLatLon0.09_PT083H.grib2 2026-05-06 03:04 235K
20260506T00Z_MSC_RDPS_GeopotentialHeight_IsbL-0275_RLatLon0.09_PT083H.grib2 2026-05-06 03:04 235K
20260506T00Z_MSC_RDPS_GeopotentialHeight_IsbL-0300_RLatLon0.09_PT083H.grib2 2026-05-06 03:04 234K
20260506T00Z_MSC_RDPS_GeopotentialHeight_IsbL-0350_RLatLon0.09_PT083H.grib2 2026-05-06 03:04 229K
20260506T00Z_MSC_RDPS_GeopotentialHeight_IsbL-0400_RLatLon0.09_PT083H.grib2 2026-05-06 03:04 299K
20260506T00Z_MSC_RDPS_GeopotentialHeight_IsbL-0450_RLatLon0.09_PT083H.grib2 2026-05-06 03:04 293K
20260506T00Z_MSC_RDPS_GeopotentialHeight_IsbL-0500_RLatLon0.09_PT083H.grib2 2026-05-06 03:04 288K
20260506T00Z_MSC_RDPS_GeopotentialHeight_IsbL-0550_RLatLon0.09_PT083H.grib2 2026-05-06 03:04 284K
20260506T00Z_MSC_RDPS_GeopotentialHeight_IsbL-0600_RLatLon0.09_PT083H.grib2 2026-05-06 03:04 282K
20260506T00Z_MSC_RDPS_GeopotentialHeight_IsbL-0650_RLatLon0.09_PT083H.grib2 2026-05-06 03:04 252K
20260506T00Z_MSC_RDPS_GeopotentialHeight_IsbL-0700_RLatLon0.09_PT083H.grib2 2026-05-06 03:04 252K
20260506T00Z_MSC_RDPS_GeopotentialHeight_IsbL-0750_RLatLon0.09_PT083H.grib2 2026-05-06 03:04 256K
20260506T00Z_MSC_RDPS_GeopotentialHeight_IsbL-0800_RLatLon0.09_PT083H.grib2 2026-05-06 03:04 265K
20260506T00Z_MSC_RDPS_GeopotentialHeight_IsbL-0850_RLatLon0.09_PT083H.grib2 2026-05-06 03:04 273K
20260506T00Z_MSC_RDPS_GeopotentialHeight_IsbL-0875_RLatLon0.09_PT083H.grib2 2026-05-06 03:04 275K
20260506T00Z_MSC_RDPS_GeopotentialHeight_IsbL-0900_RLatLon0.09_PT083H.grib2 2026-05-06 03:04 277K
20260506T00Z_MSC_RDPS_GeopotentialHeight_IsbL-0925_RLatLon0.09_PT083H.grib2 2026-05-06 03:04 280K
20260506T00Z_MSC_RDPS_GeopotentialHeight_IsbL-0950_RLatLon0.09_PT083H.grib2 2026-05-06 03:04 283K
20260506T00Z_MSC_RDPS_GeopotentialHeight_IsbL-0970_RLatLon0.09_PT083H.grib2 2026-05-06 03:04 287K
20260506T00Z_MSC_RDPS_GeopotentialHeight_IsbL-0985_RLatLon0.09_PT083H.grib2 2026-05-06 03:04 294K
20260506T00Z_MSC_RDPS_GeopotentialHeight_IsbL-1000_RLatLon0.09_PT083H.grib2 2026-05-06 03:04 302K
20260506T00Z_MSC_RDPS_GeopotentialHeight_IsbL-1015_RLatLon0.09_PT083H.grib2 2026-05-06 03:04 314K
20260506T00Z_MSC_RDPS_HighLowPressure_MSL_RLatLon0.09_PT083H.json 2026-05-06 02:56 18K
20260506T00Z_MSC_RDPS_Humidex_Sfc_RLatLon0.09_PT083H.grib2 2026-05-06 03:04 2.4M
20260506T00Z_MSC_RDPS_IcePellets-Accum1h_Sfc_RLatLon0.09_PT083H.grib2 2026-05-06 03:04 14K
20260506T00Z_MSC_RDPS_IcePellets-Accum_Sfc_RLatLon0.09_PT083H.grib2 2026-05-06 03:04 43K
20260506T00Z_MSC_RDPS_KIndex_Sfc_RLatLon0.09_PT083H.grib2 2026-05-06 03:04 2.5M
20260506T00Z_MSC_RDPS_LatentHeatNetFlux_Sfc_RLatLon0.09_PT083H.grib2 2026-05-06 03:04 328K
20260506T00Z_MSC_RDPS_LiftedIndex-MU-VT_IsbL-0500_RLatLon0.09_PT083H.grib2 2026-05-06 03:04 2.4M
20260506T00Z_MSC_RDPS_NetLongwaveRadiationFlux-Accum_Sfc_RLatLon0.09_PT083H.grib2 2026-05-06 03:04 494K
20260506T00Z_MSC_RDPS_NetShortwaveRadiationFlux-Accum_Sfc_RLatLon0.09_PT083H.grib2 2026-05-06 03:04 642K
20260506T00Z_MSC_RDPS_PlanetaryBoundaryLayerHeight_Sfc_RLatLon0.09_PT083H.grib2 2026-05-06 03:04 1.1M
20260506T00Z_MSC_RDPS_Precip-Accum1h_Sfc_RLatLon0.09_PT083H.grib2 2026-05-06 03:04 1.3M
20260506T00Z_MSC_RDPS_Precip-Accum_Sfc_RLatLon0.09_PT083H.grib2 2026-05-06 03:04 2.2M
20260506T00Z_MSC_RDPS_PrecipRate_Sfc_RLatLon0.09_PT083H.grib2 2026-05-06 03:04 191K
20260506T00Z_MSC_RDPS_PrecipType-Instant_Sfc_RLatLon0.09_PT083H.grib2 2026-05-06 03:04 616K
20260506T00Z_MSC_RDPS_Pressure-Trend3h_Sfc_RLatLon0.09_PT083H.grib2 2026-05-06 03:04 1.2M
20260506T00Z_MSC_RDPS_Pressure_MSL_RLatLon0.09_PT083H.grib2 2026-05-06 03:04 326K
20260506T00Z_MSC_RDPS_Pressure_PVU-1.5_RLatLon0.09_PT083H.grib2 2026-05-06 03:04 2.3M
20260506T00Z_MSC_RDPS_Pressure_PVU-1_RLatLon0.09_PT083H.grib2 2026-05-06 03:04 2.4M
20260506T00Z_MSC_RDPS_Pressure_PVU-2_RLatLon0.09_PT083H.grib2 2026-05-06 03:04 2.4M
20260506T00Z_MSC_RDPS_Pressure_Sfc_RLatLon0.09_PT083H.grib2 2026-05-06 03:04 499K
20260506T00Z_MSC_RDPS_RadiativeTemp_Sfc_RLatLon0.09_PT083H.grib2 2026-05-06 03:04 387K
20260506T00Z_MSC_RDPS_Rain-Accum1h_Sfc_RLatLon0.09_PT083H.grib2 2026-05-06 03:04 580K
20260506T00Z_MSC_RDPS_Rain-Accum_Sfc_RLatLon0.09_PT083H.grib2 2026-05-06 03:04 1.9M
20260506T00Z_MSC_RDPS_RelativeHumidity_AGL-2m_RLatLon0.09_PT083H.grib2 2026-05-06 03:04 1.0M
20260506T00Z_MSC_RDPS_RelativeHumidity_IsbL-0010_RLatLon0.09_PT083H.grib2 2026-05-06 03:04 601K
20260506T00Z_MSC_RDPS_RelativeHumidity_IsbL-0020_RLatLon0.09_PT083H.grib2 2026-05-06 03:04 714K
20260506T00Z_MSC_RDPS_RelativeHumidity_IsbL-0030_RLatLon0.09_PT083H.grib2 2026-05-06 03:04 631K
20260506T00Z_MSC_RDPS_RelativeHumidity_IsbL-0050_RLatLon0.09_PT083H.grib2 2026-05-06 03:04 355K
20260506T00Z_MSC_RDPS_RelativeHumidity_IsbL-0100_RLatLon0.09_PT083H.grib2 2026-05-06 03:04 276K
20260506T00Z_MSC_RDPS_RelativeHumidity_IsbL-0150_RLatLon0.09_PT083H.grib2 2026-05-06 03:04 408K
20260506T00Z_MSC_RDPS_RelativeHumidity_IsbL-0175_RLatLon0.09_PT083H.grib2 2026-05-06 03:04 462K
20260506T00Z_MSC_RDPS_RelativeHumidity_IsbL-0200_RLatLon0.09_PT083H.grib2 2026-05-06 03:04 534K
20260506T00Z_MSC_RDPS_RelativeHumidity_IsbL-0225_RLatLon0.09_PT083H.grib2 2026-05-06 03:04 601K
20260506T00Z_MSC_RDPS_RelativeHumidity_IsbL-0250_RLatLon0.09_PT083H.grib2 2026-05-06 03:04 671K
20260506T00Z_MSC_RDPS_RelativeHumidity_IsbL-0275_RLatLon0.09_PT083H.grib2 2026-05-06 03:04 704K
20260506T00Z_MSC_RDPS_RelativeHumidity_IsbL-0300_RLatLon0.09_PT083H.grib2 2026-05-06 03:04 751K
20260506T00Z_MSC_RDPS_RelativeHumidity_IsbL-0350_RLatLon0.09_PT083H.grib2 2026-05-06 03:04 765K
20260506T00Z_MSC_RDPS_RelativeHumidity_IsbL-0400_RLatLon0.09_PT083H.grib2 2026-05-06 03:04 774K
20260506T00Z_MSC_RDPS_RelativeHumidity_IsbL-0450_RLatLon0.09_PT083H.grib2 2026-05-06 03:04 777K
20260506T00Z_MSC_RDPS_RelativeHumidity_IsbL-0500_RLatLon0.09_PT083H.grib2 2026-05-06 03:04 787K
20260506T00Z_MSC_RDPS_RelativeHumidity_IsbL-0550_RLatLon0.09_PT083H.grib2 2026-05-06 03:04 806K
20260506T00Z_MSC_RDPS_RelativeHumidity_IsbL-0600_RLatLon0.09_PT083H.grib2 2026-05-06 03:04 830K
20260506T00Z_MSC_RDPS_RelativeHumidity_IsbL-0650_RLatLon0.09_PT083H.grib2 2026-05-06 03:04 845K
20260506T00Z_MSC_RDPS_RelativeHumidity_IsbL-0700_RLatLon0.09_PT083H.grib2 2026-05-06 03:04 873K
20260506T00Z_MSC_RDPS_RelativeHumidity_IsbL-0750_RLatLon0.09_PT083H.grib2 2026-05-06 03:04 928K
20260506T00Z_MSC_RDPS_RelativeHumidity_IsbL-0800_RLatLon0.09_PT083H.grib2 2026-05-06 03:04 1.0M
20260506T00Z_MSC_RDPS_RelativeHumidity_IsbL-0850_RLatLon0.09_PT083H.grib2 2026-05-06 03:04 1.1M
20260506T00Z_MSC_RDPS_RelativeHumidity_IsbL-0875_RLatLon0.09_PT083H.grib2 2026-05-06 03:04 1.1M
20260506T00Z_MSC_RDPS_RelativeHumidity_IsbL-0900_RLatLon0.09_PT083H.grib2 2026-05-06 03:04 1.1M
20260506T00Z_MSC_RDPS_RelativeHumidity_IsbL-0925_RLatLon0.09_PT083H.grib2 2026-05-06 03:04 1.1M
20260506T00Z_MSC_RDPS_RelativeHumidity_IsbL-0950_RLatLon0.09_PT083H.grib2 2026-05-06 03:04 1.1M
20260506T00Z_MSC_RDPS_RelativeHumidity_IsbL-0970_RLatLon0.09_PT083H.grib2 2026-05-06 03:04 1.0M
20260506T00Z_MSC_RDPS_RelativeHumidity_IsbL-0985_RLatLon0.09_PT083H.grib2 2026-05-06 03:04 1.0M
20260506T00Z_MSC_RDPS_RelativeHumidity_IsbL-1000_RLatLon0.09_PT083H.grib2 2026-05-06 03:04 1.0M
20260506T00Z_MSC_RDPS_RelativeHumidity_IsbL-1015_RLatLon0.09_PT083H.grib2 2026-05-06 03:04 1.0M
20260506T00Z_MSC_RDPS_Runoff-Accum_Sfc_RLatLon0.09_PT083H.grib2 2026-05-06 03:04 72K
20260506T00Z_MSC_RDPS_SWEATIndex_Sfc_RLatLon0.09_PT083H.grib2 2026-05-06 03:04 2.4M
20260506T00Z_MSC_RDPS_SeeingIndex_EAtm_RLatLon0.09_PT083H.grib2 2026-05-06 03:04 1.0M
20260506T00Z_MSC_RDPS_SensibleHeatNetFlux_Sfc_RLatLon0.09_PT083H.grib2 2026-05-06 03:04 218K
20260506T00Z_MSC_RDPS_ShowalterIndex_IsbL-0500_RLatLon0.09_PT083H.grib2 2026-05-06 03:04 2.6M
20260506T00Z_MSC_RDPS_SkyTransparencyIndex_EAtm_RLatLon0.09_PT083H.grib2 2026-05-06 03:04 701K
20260506T00Z_MSC_RDPS_Snow-Accum1h_Sfc_RLatLon0.09_PT083H.grib2 2026-05-06 03:04 512K
20260506T00Z_MSC_RDPS_Snow-Accum_Sfc_RLatLon0.09_PT083H.grib2 2026-05-06 03:04 769K
20260506T00Z_MSC_RDPS_SnowDensity_Sfc_RLatLon0.09_PT083H.grib2 2026-05-06 03:04 176K
20260506T00Z_MSC_RDPS_SnowDepth_Sfc_RLatLon0.09_PT083H.grib2 2026-05-06 03:04 629K
20260506T00Z_MSC_RDPS_SoilTemp_DBS-0to10cm_RLatLon0.09_PT083H.grib2 2026-05-06 03:04 244K
20260506T00Z_MSC_RDPS_SoilTemp_Sfc_RLatLon0.09_PT083H.grib2 2026-05-06 03:04 272K
20260506T00Z_MSC_RDPS_SoilVolumetricIceContent_Sfc_RLatLon0.09_PT083H.grib2 2026-05-06 03:04 145K
20260506T00Z_MSC_RDPS_SoilVolumetricWaterContent_DBS-0to10cm_RLatLon0.09_PT083H.grib2 2026-05-06 03:04 291K
20260506T00Z_MSC_RDPS_SoilVolumetricWaterContent_DBS-0to1cm_RLatLon0.09_PT083H.grib2 2026-05-06 03:04 344K
20260506T00Z_MSC_RDPS_SpecificHumidity_AGL-120m_RLatLon0.09_PT083H.grib2 2026-05-06 03:04 497K
20260506T00Z_MSC_RDPS_SpecificHumidity_AGL-2m_RLatLon0.09_PT083H.grib2 2026-05-06 03:04 668K
20260506T00Z_MSC_RDPS_SpecificHumidity_AGL-40m_RLatLon0.09_PT083H.grib2 2026-05-06 03:04 503K
20260506T00Z_MSC_RDPS_SpecificHumidity_AGL-80m_RLatLon0.09_PT083H.grib2 2026-05-06 03:04 499K
20260506T00Z_MSC_RDPS_SpecificHumidity_IsbL-0001_RLatLon0.09_PT083H.grib2 2026-05-06 03:04 363K
20260506T00Z_MSC_RDPS_SpecificHumidity_IsbL-0005_RLatLon0.09_PT083H.grib2 2026-05-06 03:04 362K
20260506T00Z_MSC_RDPS_SpecificHumidity_IsbL-0010_RLatLon0.09_PT083H.grib2 2026-05-06 03:04 396K
20260506T00Z_MSC_RDPS_SpecificHumidity_IsbL-0020_RLatLon0.09_PT083H.grib2 2026-05-06 03:04 483K
20260506T00Z_MSC_RDPS_SpecificHumidity_IsbL-0030_RLatLon0.09_PT083H.grib2 2026-05-06 03:04 472K
20260506T00Z_MSC_RDPS_SpecificHumidity_IsbL-0050_RLatLon0.09_PT083H.grib2 2026-05-06 03:04 462K
20260506T00Z_MSC_RDPS_SpecificHumidity_IsbL-0100_RLatLon0.09_PT083H.grib2 2026-05-06 03:04 407K
20260506T00Z_MSC_RDPS_SpecificHumidity_IsbL-0150_RLatLon0.09_PT083H.grib2 2026-05-06 03:04 474K
20260506T00Z_MSC_RDPS_SpecificHumidity_IsbL-0175_RLatLon0.09_PT083H.grib2 2026-05-06 03:04 429K
20260506T00Z_MSC_RDPS_SpecificHumidity_IsbL-0200_RLatLon0.09_PT083H.grib2 2026-05-06 03:04 460K
20260506T00Z_MSC_RDPS_SpecificHumidity_IsbL-0225_RLatLon0.09_PT083H.grib2 2026-05-06 03:04 443K
20260506T00Z_MSC_RDPS_SpecificHumidity_IsbL-0250_RLatLon0.09_PT083H.grib2 2026-05-06 03:04 547K
20260506T00Z_MSC_RDPS_SpecificHumidity_IsbL-0275_RLatLon0.09_PT083H.grib2 2026-05-06 03:04 469K
20260506T00Z_MSC_RDPS_SpecificHumidity_IsbL-0300_RLatLon0.09_PT083H.grib2 2026-05-06 03:04 446K
20260506T00Z_MSC_RDPS_SpecificHumidity_IsbL-0350_RLatLon0.09_PT083H.grib2 2026-05-06 03:04 561K
20260506T00Z_MSC_RDPS_SpecificHumidity_IsbL-0400_RLatLon0.09_PT083H.grib2 2026-05-06 03:04 514K
20260506T00Z_MSC_RDPS_SpecificHumidity_IsbL-0450_RLatLon0.09_PT083H.grib2 2026-05-06 03:04 564K
20260506T00Z_MSC_RDPS_SpecificHumidity_IsbL-0500_RLatLon0.09_PT083H.grib2 2026-05-06 03:04 502K
20260506T00Z_MSC_RDPS_SpecificHumidity_IsbL-0550_RLatLon0.09_PT083H.grib2 2026-05-06 03:04 575K
20260506T00Z_MSC_RDPS_SpecificHumidity_IsbL-0600_RLatLon0.09_PT083H.grib2 2026-05-06 03:04 631K
20260506T00Z_MSC_RDPS_SpecificHumidity_IsbL-0650_RLatLon0.09_PT083H.grib2 2026-05-06 03:04 551K
20260506T00Z_MSC_RDPS_SpecificHumidity_IsbL-0700_RLatLon0.09_PT083H.grib2 2026-05-06 03:04 599K
20260506T00Z_MSC_RDPS_SpecificHumidity_IsbL-0750_RLatLon0.09_PT083H.grib2 2026-05-06 03:04 660K
20260506T00Z_MSC_RDPS_SpecificHumidity_IsbL-0800_RLatLon0.09_PT083H.grib2 2026-05-06 03:04 745K
20260506T00Z_MSC_RDPS_SpecificHumidity_IsbL-0850_RLatLon0.09_PT083H.grib2 2026-05-06 03:04 831K
20260506T00Z_MSC_RDPS_SpecificHumidity_IsbL-0875_RLatLon0.09_PT083H.grib2 2026-05-06 03:04 850K
20260506T00Z_MSC_RDPS_SpecificHumidity_IsbL-0900_RLatLon0.09_PT083H.grib2 2026-05-06 03:04 852K
20260506T00Z_MSC_RDPS_SpecificHumidity_IsbL-0925_RLatLon0.09_PT083H.grib2 2026-05-06 03:04 850K
20260506T00Z_MSC_RDPS_SpecificHumidity_IsbL-0950_RLatLon0.09_PT083H.grib2 2026-05-06 03:04 706K
20260506T00Z_MSC_RDPS_SpecificHumidity_IsbL-0970_RLatLon0.09_PT083H.grib2 2026-05-06 03:04 701K
20260506T00Z_MSC_RDPS_SpecificHumidity_IsbL-0985_RLatLon0.09_PT083H.grib2 2026-05-06 03:04 692K
20260506T00Z_MSC_RDPS_SpecificHumidity_IsbL-1000_RLatLon0.09_PT083H.grib2 2026-05-06 03:04 689K
20260506T00Z_MSC_RDPS_SpecificHumidity_IsbL-1015_RLatLon0.09_PT083H.grib2 2026-05-06 03:04 680K
20260506T00Z_MSC_RDPS_SpecificHumidity_Sfc_RLatLon0.09_PT083H.grib2 2026-05-06 03:04 301K
20260506T00Z_MSC_RDPS_StormRelativeHelicity_EtaL-10000_RLatLon0.09_PT083H.grib2 2026-05-06 03:04 1.1M
20260506T00Z_MSC_RDPS_StormSeverityIndex_EtaL-10000_RLatLon0.09_PT083H.grib2 2026-05-06 03:04 1.2M
20260506T00Z_MSC_RDPS_Thickness_IsbL-0850to0700_RLatLon0.09_PT083H.grib2 2026-05-06 03:04 249K
20260506T00Z_MSC_RDPS_Thickness_IsbL-1000to0500_RLatLon0.09_PT083H.grib2 2026-05-06 03:04 194K
20260506T00Z_MSC_RDPS_Thickness_IsbL-1000to0850_RLatLon0.09_PT083H.grib2 2026-05-06 03:04 260K
20260506T00Z_MSC_RDPS_TotalCloudCover_Sfc_RLatLon0.09_PT083H.grib2 2026-05-06 03:04 667K
20260506T00Z_MSC_RDPS_TotalTotalsIndex_Sfc_RLatLon0.09_PT083H.grib2 2026-05-06 03:04 2.6M
20260506T00Z_MSC_RDPS_UVIndex-ClearSky_Sfc_RLatLon0.09_PT083H.grib2 2026-05-06 03:04 122K
20260506T00Z_MSC_RDPS_UVIndex_Sfc_RLatLon0.09_PT083H.grib2 2026-05-06 03:04 285K
20260506T00Z_MSC_RDPS_UpwardLongwaveRadiationFlux_NTAtm_RLatLon0.09_PT083H.grib2 2026-05-06 03:04 487K
20260506T00Z_MSC_RDPS_UpwardShortwaveRadiationFlux_NTAtm_RLatLon0.09_PT083H.grib2 2026-05-06 03:04 263K
20260506T00Z_MSC_RDPS_VerticalVelocity_IsbL-0250_RLatLon0.09_PT083H.grib2 2026-05-06 03:04 545K
20260506T00Z_MSC_RDPS_VerticalVelocity_IsbL-0500_RLatLon0.09_PT083H.grib2 2026-05-06 03:04 532K
20260506T00Z_MSC_RDPS_VerticalVelocity_IsbL-0700_RLatLon0.09_PT083H.grib2 2026-05-06 03:04 593K
20260506T00Z_MSC_RDPS_VerticalVelocity_IsbL-0850_RLatLon0.09_PT083H.grib2 2026-05-06 03:04 700K
20260506T00Z_MSC_RDPS_VerticalWindShear_EtaL-6500_RLatLon0.09_PT083H.grib2 2026-05-06 03:04 1.2M
20260506T00Z_MSC_RDPS_WindChill_Sfc_RLatLon0.09_PT083H.grib2 2026-05-06 03:04 1.2M
20260506T00Z_MSC_RDPS_WindDir_AGL-10m_RLatLon0.09_PT083H.grib2 2026-05-06 03:04 1.0M
20260506T00Z_MSC_RDPS_WindDir_AGL-120m_RLatLon0.09_PT083H.grib2 2026-05-06 03:04 609K
20260506T00Z_MSC_RDPS_WindDir_AGL-40m_RLatLon0.09_PT083H.grib2 2026-05-06 03:04 646K
20260506T00Z_MSC_RDPS_WindDir_AGL-80m_RLatLon0.09_PT083H.grib2 2026-05-06 03:04 624K
20260506T00Z_MSC_RDPS_WindDir_IsbL-0001_RLatLon0.09_PT083H.grib2 2026-05-06 03:04 290K
20260506T00Z_MSC_RDPS_WindDir_IsbL-0005_RLatLon0.09_PT083H.grib2 2026-05-06 03:04 366K
20260506T00Z_MSC_RDPS_WindDir_IsbL-0010_RLatLon0.09_PT083H.grib2 2026-05-06 03:04 384K
20260506T00Z_MSC_RDPS_WindDir_IsbL-0020_RLatLon0.09_PT083H.grib2 2026-05-06 03:04 417K
20260506T00Z_MSC_RDPS_WindDir_IsbL-0030_RLatLon0.09_PT083H.grib2 2026-05-06 03:04 410K
20260506T00Z_MSC_RDPS_WindDir_IsbL-0050_RLatLon0.09_PT083H.grib2 2026-05-06 03:04 435K
20260506T00Z_MSC_RDPS_WindDir_IsbL-0100_RLatLon0.09_PT083H.grib2 2026-05-06 03:04 420K
20260506T00Z_MSC_RDPS_WindDir_IsbL-0150_RLatLon0.09_PT083H.grib2 2026-05-06 03:04 416K
20260506T00Z_MSC_RDPS_WindDir_IsbL-0175_RLatLon0.09_PT083H.grib2 2026-05-06 03:04 441K
20260506T00Z_MSC_RDPS_WindDir_IsbL-0200_RLatLon0.09_PT083H.grib2 2026-05-06 03:04 454K
20260506T00Z_MSC_RDPS_WindDir_IsbL-0225_RLatLon0.09_PT083H.grib2 2026-05-06 03:04 461K
20260506T00Z_MSC_RDPS_WindDir_IsbL-0250_RLatLon0.09_PT083H.grib2 2026-05-06 03:04 462K
20260506T00Z_MSC_RDPS_WindDir_IsbL-0275_RLatLon0.09_PT083H.grib2 2026-05-06 03:04 483K
20260506T00Z_MSC_RDPS_WindDir_IsbL-0300_RLatLon0.09_PT083H.grib2 2026-05-06 03:04 480K
20260506T00Z_MSC_RDPS_WindDir_IsbL-0350_RLatLon0.09_PT083H.grib2 2026-05-06 03:04 507K
20260506T00Z_MSC_RDPS_WindDir_IsbL-0400_RLatLon0.09_PT083H.grib2 2026-05-06 03:04 524K
20260506T00Z_MSC_RDPS_WindDir_IsbL-0450_RLatLon0.09_PT083H.grib2 2026-05-06 03:04 540K
20260506T00Z_MSC_RDPS_WindDir_IsbL-0500_RLatLon0.09_PT083H.grib2 2026-05-06 03:04 558K
20260506T00Z_MSC_RDPS_WindDir_IsbL-0550_RLatLon0.09_PT083H.grib2 2026-05-06 03:04 567K
20260506T00Z_MSC_RDPS_WindDir_IsbL-0600_RLatLon0.09_PT083H.grib2 2026-05-06 03:04 586K
20260506T00Z_MSC_RDPS_WindDir_IsbL-0650_RLatLon0.09_PT083H.grib2 2026-05-06 03:04 617K
20260506T00Z_MSC_RDPS_WindDir_IsbL-0700_RLatLon0.09_PT083H.grib2 2026-05-06 03:04 656K
20260506T00Z_MSC_RDPS_WindDir_IsbL-0750_RLatLon0.09_PT083H.grib2 2026-05-06 03:04 707K
20260506T00Z_MSC_RDPS_WindDir_IsbL-0800_RLatLon0.09_PT083H.grib2 2026-05-06 03:04 778K
20260506T00Z_MSC_RDPS_WindDir_IsbL-0850_RLatLon0.09_PT083H.grib2 2026-05-06 03:04 859K
20260506T00Z_MSC_RDPS_WindDir_IsbL-0875_RLatLon0.09_PT083H.grib2 2026-05-06 03:04 882K
20260506T00Z_MSC_RDPS_WindDir_IsbL-0900_RLatLon0.09_PT083H.grib2 2026-05-06 03:04 899K
20260506T00Z_MSC_RDPS_WindDir_IsbL-0925_RLatLon0.09_PT083H.grib2 2026-05-06 03:04 913K
20260506T00Z_MSC_RDPS_WindDir_IsbL-0950_RLatLon0.09_PT083H.grib2 2026-05-06 03:04 919K
20260506T00Z_MSC_RDPS_WindDir_IsbL-0970_RLatLon0.09_PT083H.grib2 2026-05-06 03:04 926K
20260506T00Z_MSC_RDPS_WindDir_IsbL-0985_RLatLon0.09_PT083H.grib2 2026-05-06 03:04 938K
20260506T00Z_MSC_RDPS_WindDir_IsbL-1000_RLatLon0.09_PT083H.grib2 2026-05-06 03:04 955K
20260506T00Z_MSC_RDPS_WindDir_IsbL-1015_RLatLon0.09_PT083H.grib2 2026-05-06 03:04 1.0M
20260506T00Z_MSC_RDPS_WindGust-Max_AGL-10m_RLatLon0.09_PT083H.grib2 2026-05-06 03:04 1.0M
20260506T00Z_MSC_RDPS_WindGust-Min_AGL-10m_RLatLon0.09_PT083H.grib2 2026-05-06 03:04 1.0M
20260506T00Z_MSC_RDPS_WindGust_AGL-10m_RLatLon0.09_PT083H.grib2 2026-05-06 03:04 1.0M
20260506T00Z_MSC_RDPS_WindSpeed_AGL-10m_RLatLon0.09_PT083H.grib2 2026-05-06 03:04 849K
20260506T00Z_MSC_RDPS_WindSpeed_AGL-120m_RLatLon0.09_PT083H.grib2 2026-05-06 03:04 549K
20260506T00Z_MSC_RDPS_WindSpeed_AGL-40m_RLatLon0.09_PT083H.grib2 2026-05-06 03:04 550K
20260506T00Z_MSC_RDPS_WindSpeed_AGL-80m_RLatLon0.09_PT083H.grib2 2026-05-06 03:04 550K
20260506T00Z_MSC_RDPS_WindSpeed_IsbL-0001_RLatLon0.09_PT083H.grib2 2026-05-06 03:04 252K
20260506T00Z_MSC_RDPS_WindSpeed_IsbL-0005_RLatLon0.09_PT083H.grib2 2026-05-06 03:04 291K
20260506T00Z_MSC_RDPS_WindSpeed_IsbL-0010_RLatLon0.09_PT083H.grib2 2026-05-06 03:04 394K
20260506T00Z_MSC_RDPS_WindSpeed_IsbL-0020_RLatLon0.09_PT083H.grib2 2026-05-06 03:04 323K
20260506T00Z_MSC_RDPS_WindSpeed_IsbL-0030_RLatLon0.09_PT083H.grib2 2026-05-06 03:04 319K
20260506T00Z_MSC_RDPS_WindSpeed_IsbL-0050_RLatLon0.09_PT083H.grib2 2026-05-06 03:04 448K
20260506T00Z_MSC_RDPS_WindSpeed_IsbL-0100_RLatLon0.09_PT083H.grib2 2026-05-06 03:04 434K
20260506T00Z_MSC_RDPS_WindSpeed_IsbL-0150_RLatLon0.09_PT083H.grib2 2026-05-06 03:04 371K
20260506T00Z_MSC_RDPS_WindSpeed_IsbL-0175_RLatLon0.09_PT083H.grib2 2026-05-06 03:04 395K
20260506T00Z_MSC_RDPS_WindSpeed_IsbL-0200_RLatLon0.09_PT083H.grib2 2026-05-06 03:04 433K
20260506T00Z_MSC_RDPS_WindSpeed_IsbL-0225_RLatLon0.09_PT083H.grib2 2026-05-06 03:04 442K
20260506T00Z_MSC_RDPS_WindSpeed_IsbL-0250_RLatLon0.09_PT083H.grib2 2026-05-06 03:04 445K
20260506T00Z_MSC_RDPS_WindSpeed_IsbL-0275_RLatLon0.09_PT083H.grib2 2026-05-06 03:04 461K
20260506T00Z_MSC_RDPS_WindSpeed_IsbL-0300_RLatLon0.09_PT083H.grib2 2026-05-06 03:04 458K
20260506T00Z_MSC_RDPS_WindSpeed_IsbL-0350_RLatLon0.09_PT083H.grib2 2026-05-06 03:04 473K
20260506T00Z_MSC_RDPS_WindSpeed_IsbL-0400_RLatLon0.09_PT083H.grib2 2026-05-06 03:04 473K
20260506T00Z_MSC_RDPS_WindSpeed_IsbL-0450_RLatLon0.09_PT083H.grib2 2026-05-06 03:04 454K
20260506T00Z_MSC_RDPS_WindSpeed_IsbL-0500_RLatLon0.09_PT083H.grib2 2026-05-06 03:04 457K
20260506T00Z_MSC_RDPS_WindSpeed_IsbL-0550_RLatLon0.09_PT083H.grib2 2026-05-06 03:04 577K
20260506T00Z_MSC_RDPS_WindSpeed_IsbL-0600_RLatLon0.09_PT083H.grib2 2026-05-06 03:04 588K
20260506T00Z_MSC_RDPS_WindSpeed_IsbL-0650_RLatLon0.09_PT083H.grib2 2026-05-06 03:04 606K
20260506T00Z_MSC_RDPS_WindSpeed_IsbL-0700_RLatLon0.09_PT083H.grib2 2026-05-06 03:04 675K
20260506T00Z_MSC_RDPS_WindSpeed_IsbL-0750_RLatLon0.09_PT083H.grib2 2026-05-06 03:04 711K
20260506T00Z_MSC_RDPS_WindSpeed_IsbL-0800_RLatLon0.09_PT083H.grib2 2026-05-06 03:04 767K
20260506T00Z_MSC_RDPS_WindSpeed_IsbL-0850_RLatLon0.09_PT083H.grib2 2026-05-06 03:04 830K
20260506T00Z_MSC_RDPS_WindSpeed_IsbL-0875_RLatLon0.09_PT083H.grib2 2026-05-06 03:04 848K
20260506T00Z_MSC_RDPS_WindSpeed_IsbL-0900_RLatLon0.09_PT083H.grib2 2026-05-06 03:04 862K
20260506T00Z_MSC_RDPS_WindSpeed_IsbL-0925_RLatLon0.09_PT083H.grib2 2026-05-06 03:04 873K
20260506T00Z_MSC_RDPS_WindSpeed_IsbL-0950_RLatLon0.09_PT083H.grib2 2026-05-06 03:04 875K
20260506T00Z_MSC_RDPS_WindSpeed_IsbL-0970_RLatLon0.09_PT083H.grib2 2026-05-06 03:04 872K
20260506T00Z_MSC_RDPS_WindSpeed_IsbL-0985_RLatLon0.09_PT083H.grib2 2026-05-06 03:04 863K
20260506T00Z_MSC_RDPS_WindSpeed_IsbL-1000_RLatLon0.09_PT083H.grib2 2026-05-06 03:04 857K
20260506T00Z_MSC_RDPS_WindSpeed_IsbL-1015_RLatLon0.09_PT083H.grib2 2026-05-06 03:04 849K
20260506T00Z_MSC_RDPS_WindU_AGL-10m_RLatLon0.09_PT083H.grib2 2026-05-06 03:04 436K
20260506T00Z_MSC_RDPS_WindU_AGL-120m_RLatLon0.09_PT083H.grib2 2026-05-06 03:04 425K
20260506T00Z_MSC_RDPS_WindU_AGL-40m_RLatLon0.09_PT083H.grib2 2026-05-06 03:04 545K
20260506T00Z_MSC_RDPS_WindU_AGL-80m_RLatLon0.09_PT083H.grib2 2026-05-06 03:04 427K
20260506T00Z_MSC_RDPS_WindU_IsbL-0001_RLatLon0.09_PT083H.grib2 2026-05-06 03:04 294K
20260506T00Z_MSC_RDPS_WindU_IsbL-0005_RLatLon0.09_PT083H.grib2 2026-05-06 03:04 328K
20260506T00Z_MSC_RDPS_WindU_IsbL-0010_RLatLon0.09_PT083H.grib2 2026-05-06 03:04 296K
20260506T00Z_MSC_RDPS_WindU_IsbL-0020_RLatLon0.09_PT083H.grib2 2026-05-06 03:04 313K
20260506T00Z_MSC_RDPS_WindU_IsbL-0030_RLatLon0.09_PT083H.grib2 2026-05-06 03:04 310K
20260506T00Z_MSC_RDPS_WindU_IsbL-0050_RLatLon0.09_PT083H.grib2 2026-05-06 03:04 339K
20260506T00Z_MSC_RDPS_WindU_IsbL-0100_RLatLon0.09_PT083H.grib2 2026-05-06 03:04 333K
20260506T00Z_MSC_RDPS_WindU_IsbL-0150_RLatLon0.09_PT083H.grib2 2026-05-06 03:04 390K
20260506T00Z_MSC_RDPS_WindU_IsbL-0175_RLatLon0.09_PT083H.grib2 2026-05-06 03:04 412K
20260506T00Z_MSC_RDPS_WindU_IsbL-0200_RLatLon0.09_PT083H.grib2 2026-05-06 03:04 427K
20260506T00Z_MSC_RDPS_WindU_IsbL-0225_RLatLon0.09_PT083H.grib2 2026-05-06 03:04 335K
20260506T00Z_MSC_RDPS_WindU_IsbL-0250_RLatLon0.09_PT083H.grib2 2026-05-06 03:04 337K
20260506T00Z_MSC_RDPS_WindU_IsbL-0275_RLatLon0.09_PT083H.grib2 2026-05-06 03:04 349K
20260506T00Z_MSC_RDPS_WindU_IsbL-0300_RLatLon0.09_PT083H.grib2 2026-05-06 03:04 346K
20260506T00Z_MSC_RDPS_WindU_IsbL-0350_RLatLon0.09_PT083H.grib2 2026-05-06 03:04 357K
20260506T00Z_MSC_RDPS_WindU_IsbL-0400_RLatLon0.09_PT083H.grib2 2026-05-06 03:04 359K
20260506T00Z_MSC_RDPS_WindU_IsbL-0450_RLatLon0.09_PT083H.grib2 2026-05-06 03:04 460K
20260506T00Z_MSC_RDPS_WindU_IsbL-0500_RLatLon0.09_PT083H.grib2 2026-05-06 03:04 463K
20260506T00Z_MSC_RDPS_WindU_IsbL-0550_RLatLon0.09_PT083H.grib2 2026-05-06 03:04 468K
20260506T00Z_MSC_RDPS_WindU_IsbL-0600_RLatLon0.09_PT083H.grib2 2026-05-06 03:04 478K
20260506T00Z_MSC_RDPS_WindU_IsbL-0650_RLatLon0.09_PT083H.grib2 2026-05-06 03:04 494K
20260506T00Z_MSC_RDPS_WindU_IsbL-0700_RLatLon0.09_PT083H.grib2 2026-05-06 03:04 500K
20260506T00Z_MSC_RDPS_WindU_IsbL-0750_RLatLon0.09_PT083H.grib2 2026-05-06 03:04 531K
20260506T00Z_MSC_RDPS_WindU_IsbL-0800_RLatLon0.09_PT083H.grib2 2026-05-06 03:04 580K
20260506T00Z_MSC_RDPS_WindU_IsbL-0850_RLatLon0.09_PT083H.grib2 2026-05-06 03:04 636K
20260506T00Z_MSC_RDPS_WindU_IsbL-0875_RLatLon0.09_PT083H.grib2 2026-05-06 03:04 652K
20260506T00Z_MSC_RDPS_WindU_IsbL-0900_RLatLon0.09_PT083H.grib2 2026-05-06 03:04 662K
20260506T00Z_MSC_RDPS_WindU_IsbL-0925_RLatLon0.09_PT083H.grib2 2026-05-06 03:04 669K
20260506T00Z_MSC_RDPS_WindU_IsbL-0950_RLatLon0.09_PT083H.grib2 2026-05-06 03:04 667K
20260506T00Z_MSC_RDPS_WindU_IsbL-0970_RLatLon0.09_PT083H.grib2 2026-05-06 03:04 661K
20260506T00Z_MSC_RDPS_WindU_IsbL-0985_RLatLon0.09_PT083H.grib2 2026-05-06 03:04 657K
20260506T00Z_MSC_RDPS_WindU_IsbL-1000_RLatLon0.09_PT083H.grib2 2026-05-06 03:04 792K
20260506T00Z_MSC_RDPS_WindU_IsbL-1015_RLatLon0.09_PT083H.grib2 2026-05-06 03:04 787K
20260506T00Z_MSC_RDPS_WindV_AGL-10m_RLatLon0.09_PT083H.grib2 2026-05-06 03:04 435K
20260506T00Z_MSC_RDPS_WindV_AGL-120m_RLatLon0.09_PT083H.grib2 2026-05-06 03:04 542K
20260506T00Z_MSC_RDPS_WindV_AGL-40m_RLatLon0.09_PT083H.grib2 2026-05-06 03:04 544K
20260506T00Z_MSC_RDPS_WindV_AGL-80m_RLatLon0.09_PT083H.grib2 2026-05-06 03:04 543K
20260506T00Z_MSC_RDPS_WindV_IsbL-0001_RLatLon0.09_PT083H.grib2 2026-05-06 03:04 245K
20260506T00Z_MSC_RDPS_WindV_IsbL-0005_RLatLon0.09_PT083H.grib2 2026-05-06 03:04 286K
20260506T00Z_MSC_RDPS_WindV_IsbL-0010_RLatLon0.09_PT083H.grib2 2026-05-06 03:04 298K
20260506T00Z_MSC_RDPS_WindV_IsbL-0020_RLatLon0.09_PT083H.grib2 2026-05-06 03:04 316K
20260506T00Z_MSC_RDPS_WindV_IsbL-0030_RLatLon0.09_PT083H.grib2 2026-05-06 03:04 314K
20260506T00Z_MSC_RDPS_WindV_IsbL-0050_RLatLon0.09_PT083H.grib2 2026-05-06 03:04 342K
20260506T00Z_MSC_RDPS_WindV_IsbL-0100_RLatLon0.09_PT083H.grib2 2026-05-06 03:04 425K
20260506T00Z_MSC_RDPS_WindV_IsbL-0150_RLatLon0.09_PT083H.grib2 2026-05-06 03:04 386K
20260506T00Z_MSC_RDPS_WindV_IsbL-0175_RLatLon0.09_PT083H.grib2 2026-05-06 03:04 409K
20260506T00Z_MSC_RDPS_WindV_IsbL-0200_RLatLon0.09_PT083H.grib2 2026-05-06 03:04 329K
20260506T00Z_MSC_RDPS_WindV_IsbL-0225_RLatLon0.09_PT083H.grib2 2026-05-06 03:04 335K
20260506T00Z_MSC_RDPS_WindV_IsbL-0250_RLatLon0.09_PT083H.grib2 2026-05-06 03:04 336K
20260506T00Z_MSC_RDPS_WindV_IsbL-0275_RLatLon0.09_PT083H.grib2 2026-05-06 03:04 349K
20260506T00Z_MSC_RDPS_WindV_IsbL-0300_RLatLon0.09_PT083H.grib2 2026-05-06 03:04 346K
20260506T00Z_MSC_RDPS_WindV_IsbL-0350_RLatLon0.09_PT083H.grib2 2026-05-06 03:04 357K
20260506T00Z_MSC_RDPS_WindV_IsbL-0400_RLatLon0.09_PT083H.grib2 2026-05-06 03:04 357K
20260506T00Z_MSC_RDPS_WindV_IsbL-0450_RLatLon0.09_PT083H.grib2 2026-05-06 03:04 457K
20260506T00Z_MSC_RDPS_WindV_IsbL-0500_RLatLon0.09_PT083H.grib2 2026-05-06 03:04 458K
20260506T00Z_MSC_RDPS_WindV_IsbL-0550_RLatLon0.09_PT083H.grib2 2026-05-06 03:04 461K
20260506T00Z_MSC_RDPS_WindV_IsbL-0600_RLatLon0.09_PT083H.grib2 2026-05-06 03:04 471K
20260506T00Z_MSC_RDPS_WindV_IsbL-0650_RLatLon0.09_PT083H.grib2 2026-05-06 03:04 470K
20260506T00Z_MSC_RDPS_WindV_IsbL-0700_RLatLon0.09_PT083H.grib2 2026-05-06 03:04 493K
20260506T00Z_MSC_RDPS_WindV_IsbL-0750_RLatLon0.09_PT083H.grib2 2026-05-06 03:04 526K
20260506T00Z_MSC_RDPS_WindV_IsbL-0800_RLatLon0.09_PT083H.grib2 2026-05-06 03:04 574K
20260506T00Z_MSC_RDPS_WindV_IsbL-0850_RLatLon0.09_PT083H.grib2 2026-05-06 03:04 630K
20260506T00Z_MSC_RDPS_WindV_IsbL-0875_RLatLon0.09_PT083H.grib2 2026-05-06 03:04 647K
20260506T00Z_MSC_RDPS_WindV_IsbL-0900_RLatLon0.09_PT083H.grib2 2026-05-06 03:04 658K
20260506T00Z_MSC_RDPS_WindV_IsbL-0925_RLatLon0.09_PT083H.grib2 2026-05-06 03:04 667K
20260506T00Z_MSC_RDPS_WindV_IsbL-0950_RLatLon0.09_PT083H.grib2 2026-05-06 03:04 666K
20260506T00Z_MSC_RDPS_WindV_IsbL-0970_RLatLon0.09_PT083H.grib2 2026-05-06 03:04 802K
20260506T00Z_MSC_RDPS_WindV_IsbL-0985_RLatLon0.09_PT083H.grib2 2026-05-06 03:04 797K
20260506T00Z_MSC_RDPS_WindV_IsbL-1000_RLatLon0.09_PT083H.grib2 2026-05-06 03:04 838K
20260506T00Z_MSC_RDPS_WindV_IsbL-1015_RLatLon0.09_PT083H.grib2 2026-05-06 03:04 831K